RH
68 69 69 68 71 73 72 73 75 80 88 93 97 99 101 101 102 102 101 102 102 101 100 98 97 94 91 89 87 83 77 74 69 66 64 60 56 54 54 56 58 58 56 52 51 50 45 43 39 29 21 17 17 15 15 14 11 12 12 15 16 19 24 24 27 31 28 26 34 33 22 19 18 10 7 26 47 52 47 43 43 43 31 11 1 1 6 20 35 20 23 66 77 56 49 61 67
65 66 68 66 68 69 68 69 70 72 75 80 86 91 97 99 99 101 101 102 102 101 99 98 98 96 95 92 91 85 81 77 73 72 70 67 63 61 60 58 56 52 49 46 44 43 38 33 29 23 19 17 15 14 14 13 12 14 16 19 20 28 37 38 37 31 20 17 24 20 11 5 5 3 7 30 48 49 48 49 48 39 19 4 1 1 13 30 32 14 41 97 98 78 61 63 80
62 63 65 64 65 65 65 66 65 67 69 72 76 79 85 87 90 93 95 96 96 95 94 95 95 95 94 93 92 89 85 80 78 76 71 66 60 57 54 49 46 43 41 39 38 35 31 28 28 25 19 14 14 13 13 13 14 17 20 23 28 37 43 44 40 31 19 13 15 9 2 -1 0 1 8 30 45 45 50 52 44 30 9 2 1 5 23 30 29 15 47 103 101 98 78 71 95
59 59 60 60 61 61 61 61 60 62 65 68 70 72 76 77 79 80 82 82 82 82 82 84 83 84 84 82 82 79 76 72 68 65 59 53 48 45 42 39 37 36 34 33 31 26 25 24 23 20 15 14 14 14 14 15 17 22 25 30 38 44 45 41 33 26 20 15 15 8 0 0 0 3 14 31 41 43 51 50 33 18 3 1 4 13 27 25 26 15 45 99 99 102 90 84 103
55 55 55 55 55 55 55 55 56 56 59 62 63 65 70 72 72 72 72 72 71 71 70 70 69 70 69 67 66 62 59 57 54 51 48 44 40 37 34 33 31 29 28 25 23 20 19 17 15 14 14 15 14 15 15 16 20 26 32 40 49 51 45 37 29 24 22 18 13 5 -1 -1 1 12 26 36 42 43 51 45 22 8 3 5 9 16 23 22 20 21 59 101 101 101 97 96 98
50 51 52 52 50 51 50 50 51 51 53 54 55 59 62 64 66 68 67 67 67 67 66 65 63 62 60 58 56 52 50 48 46 44 42 39 36 33 30 28 25 23 21 18 18 17 16 14 14 14 14 15 16 16 15 20 28 36 45 56 61 58 50 40 35 29 24 17 8 1 -1 3 11 28 36 41 45 46 47 35 15 5 5 8 10 16 21 24 14 31 84 105 100 99 99 101 94
45 46 47 48 47 48 46 45 46 46 47 47 48 52 55 56 58 60 60 60 61 61 60 59 57 55 52 51 49 47 46 42 40 38 36 34 31 28 25 22 19 17 15 14 14 15 15 13 14 13 14 17 16 16 29 46 59 71 76 83 83 69 56 43 39 37 27 19 12 6 8 20 33 43 40 40 45 45 36 19 8 3 7 8 12 19 21 23 10 40 97 103 98 100 101 102 97
39 41 42 43 42 43 42 41 41 41 41 40 41 44 46 47 49 50 51 52 52 52 52 51 50 48 46 44 43 42 40 38 35 34 32 29 25 22 19 17 15 14 13 14 13 13 14 13 14 14 20 31 29 40 69 82 89 99 98 102 95 70 52 42 47 44 29 23 19 14 26 40 44 44 37 35 42 42 27 9 7 4 8 14 19 22 22 20 12 54 103 99 98 103 105 101 99
35 36 38 39 38 39 38 38 38 37 37 35 36 37 38 39 40 41 42 44 44 45 45 45 44 42 42 41 39 38 36 34 31 29 27 23 20 17 16 14 14 13 13 13 13 13 13 13 13 13 23 33 33 58 91 95 96 100 99 103 96 77 58 50 61 51 30 27 19 18 39 46 43 43 36 33 41 44 28 12 8 6 14 21 23 20 22 16 15 70 106 97 100 105 105 100 99
30 32 33 35 35 35 35 35 35 34 33 32 32 32 33 33 33 34 34 36 36 37 37 38 39 38 37 36 34 32 30 27 25 23 21 18 16 15 14 14 13 13 13 13 13 13 13 12 13 24 36 36 34 59 93 99 98 99 99 101 100 91 75 76 83 57 31 23 20 32 48 43 38 40 43 50 51 45 30 15 7 9 20 22 22 17 20 13 21 81 104 96 102 103 104 99 98
26 27 29 30 31 31 31 31 31 30 30 28 28 28 28 28 27 27 27 27 28 27 28 29 29 29 29 27 26 24 23 21 19 18 17 16 14 14 13 13 13 13 13 12 13 12 12 11 13 28 37 48 64 76 95 102 98 99 101 99 101 97 90 98 86 54 33 31 42 48 44 37 37 50 69 76 55 32 18 10 6 13 21 19 19 18 20 10 27 87 102 97 102 100 101 100 104
23 24 25 26 26 27 27 27 27 26 26 25 25 24 24 24 23 22 22 21 21 21 21 22 22 22 21 20 20 19 19 18 17 16 15 15 14 14 13 13 13 13 13 12 13 11 12 11 11 22 24 55 98 99 98 100 97 101 101 100 100 99 100 99 79 60 55 68 77 55 47 54 58 74 83 64 30 11 6 6 7 10 13 15 18 17 18 10 35 92 101 99 102 100 99 101 107
22 23 23 23 24 24 24 24 24 24 23 23 23 22 22 21 21 20 20 20 19 19 19 19 19 19 19 18 18 17 17 16 16 16 14 15 14 14 13 13 13 12 13 11 12 10 10 10 10 18 17 40 77 87 98 99 98 101 98 103 101 98 102 101 90 79 86 104 85 55 69 83 78 72 51 24 6 2 4 6 3 2 8 14 17 14 15 10 40 93 101 99 100 100 99 100 104
21 22 22 22 22 22 22 22 22 22 22 22 21 21 21 20 20 20 19 19 19 19 19 18 18 18 18 18 17 17 16 16 15 15 15 15 14 14 13 13 13 12 12 10 11 10 9 10 9 14 12 18 29 48 89 100 96 102 100 101 100 100 100 105 101 90 105 97 53 59 91 83 65 38 11 1 0 2 2 2 -1 1 8 13 15 11 14 11 38 92 102 98 99 100 100 102 101
21 21 21 21 21 21 21 21 21 20 20 20 20 19 19 19 19 19 18 18 18 18 18 18 18 18 18 17 17 17 16 16 15 15 14 14 14 13 13 12 12 11 11 10 9 9 9 10 10 12 12 16 16 24 72 103 99 97 99 99 100 103 101 105 104 99 102 62 31 76 98 71 43 12 0 3 2 3 -1 0 1 4 8 13 17 12 14 12 36 90 104 100 100 100 100 103 99
22 22 21 21 21 21 21 21 20 20 20 19 19 19 19 19 18 19 18 18 18 18 18 18 18 17 17 17 17 16 16 16 15 15 14 14 13 12 12 11 11 10 10 10 9 9 9 10 10 12 12 13 17 15 40 84 103 101 100 103 104 103 101 103 104 99 88 61 58 86 92 73 38 3 2 6 5 6 2 2 2 8 14 16 18 12 15 15 37 90 105 102 101 99 98 104 102
22 22 22 22 22 22 21 21 21 20 21 20 20 20 19 20 19 19 19 19 19 19 19 18 18 17 17 17 16 16 15 15 14 14 13 13 12 11 11 10 10 9 9 10 9 10 9 11 11 11 13 12 16 16 18 42 78 100 101 102 104 100 101 103 104 99 90 89 90 84 88 83 47 16 9 7 10 9 5 6 7 15 21 19 18 12 16 16 34 80 102 101 99 100 98 102 102
22 22 22 22 22 22 22 21 21 21 21 20 20 20 20 20 19 20 19 19 19 18 19 18 18 17 17 16 16 16 14 15 13 13 13 12 12 10 10 9 9 9 9 10 10 12 11 12 12 11 13 13 14 16 18 20 37 62 72 85 102 102 101 103 104 102 98 98 91 80 87 90 60 26 11 5 10 10 5 7 12 20 23 22 21 16 16 17 25 58 91 102 99 101 100 101 99
21 21 21 22 21 21 21 21 21 21 21 20 20 20 20 20 19 20 19 19 19 18 18 17 17 16 16 16 15 15 14 13 13 12 12 11 11 10 10 9 9 9 9 11 11 13 14 14 14 13 13 14 15 15 18 21 23 33 45 69 97 104 99 100 103 102 100 94 86 77 81 98 66 20 19 14 2 7 5 5 10 15 21 21 21 21 18 17 20 39 79 101 100 102 100 102 102
19 20 20 20 20 20 20 20 20 20 20 20 20 20 19 20 19 19 19 18 18 17 18 16 16 16 15 15 14 14 13 13 12 11 11 10 11 10 10 10 10 11 11 12 13 14 16 18 17 17 16 14 16 16 17 20 23 27 35 54 81 102 103 100 102 100 100 96 89 78 74 93 60 19 39 28 0 5 4 5 6 7 15 15 18 23 20 18 20 29 65 97 101 102 100 101 105
17 18 19 19 19 19 20 19 20 20 20 20 20 20 19 19 19 19 18 18 18 17 17 16 15 15 14 14 13 13 13 13 12 12 12 11 11 10 11 12 12 13 14 15 16 17 18 20 20 19 19 18 17 18 19 21 22 24 28 41 63 92 105 101 101 100 100 99 93 79 67 77 55 24 31 20 5 8 3 6 5 5 9 9 14 23 24 21 20 25 50 86 102 102 100 100 104
16 17 17 18 18 18 19 19 20 20 20 20 20 20 19 19 19 18 18 17 17 16 16 15 15 14 14 14 14 14 13 13 13 13 13 12 12 13 14 14 16 16 18 20 20 21 21 21 22 22 21 20 21 19 20 21 22 22 24 35 52 78 101 102 101 101 99 99 93 80 68 73 63 30 20 17 14 14 9 10 9 7 6 6 12 19 28 26 22 25 37 69 97 104 100 100 103
16 17 17 18 18 18 19 19 20 20 20 20 20 20 19 19 18 18 17 16 16 16 16 16 15 15 15 15 15 15 15 16 16 16 16 16 17 17 18 19 21 22 23 25 25 25 24 24 25 25 25 23 23 22 22 22 21 22 21 31 47 68 98 106 101 102 100 98 92 79 68 79 74 31 17 26 23 23 21 16 11 7 7 8 10 13 24 30 29 27 31 52 81 102 102 99 103
17 18 19 19 19 20 21 21 22 22 22 22 21 21 20 20 19 18 17 17 17 17 17 17 17 18 18 19 19 20 20 21 21 21 21 22 22 22 23 26 28 28 28 29 29 29 28 27 27 26 26 24 24 22 22 22 21 22 21 27 40 59 91 108 106 102 100 97 92 80 66 82 84 34 22 39 33 33 32 26 19 9 8 8 10 13 18 26 31 31 32 40 60 92 104 100 102
21 22 22 23 23 23 24 24 25 25 25 25 24 24 23 22 21 20 19 20 21 20 20 20 22 24 25 26 28 29 30 30 29 28 28 28 28 28 28 30 32 32 31 31 31 30 29 28 27 26 26 24 24 23 22 22 20 20 20 24 33 47 71 95 104 103 101 96 93 86 70 84 86 41 33 49 46 46 37 29 27 19 13 12 15 19 21 25 29 30 32 35 45 71 98 104 101
28 28 29 29 28 28 29 29 29 29 29 29 28 28 27 26 24 23 24 26 26 26 27 29 32 34 37 40 41 42 42 41 38 35 34 33 34 34 33 32 33 34 33 32 31 30 30 28 27 25 24 24 22 22 20 20 20 19 20 21 27 36 49 66 79 93 102 98 94 87 78 90 86 57 53 60 64 70 56 37 30 27 23 19 22 25 27 28 28 29 30 35 38 49 77 100 103
37 38 38 37 36 36 35 35 34 34 34 34 33 32 31 30 28 29 34 37 39 41 45 48 49 51 54 57 57 55 52 49 45 42 40 38 38 37 35 34 34 35 34 33 32 30 29 27 27 25 23 23 22 21 20 19 20 20 21 22 25 28 35 43 49 80 103 99 98 91 88 98 89 82 85 81 86 93 84 67 45 33 30 24 22 23 26 27 26 27 28 34 39 40 50 76 98
49 48 47 46 44 43 41 41 41 39 39 38 37 37 38 39 41 49 59 61 62 66 69 69 68 70 71 70 67 62 58 53 49 46 44 41 40 39 37 35 34 33 33 32 31 29 28 26 25 24 23 23 22 21 19 20 20 21 22 23 26 24 27 30 33 74 107 98 100 99 95 103 96 97 103 95 100 101 95 93 73 50 40 34 26 21 21 23 24 25 28 32 37 43 48 69 96
58 57 55 54 51 49 47 46 46 44 46 48 50 53 59 65 71 80 87 86 85 86 85 84 82 80 78 73 68 63 58 55 51 47 44 42 40 39 37 35 33 32 32 31 30 29 28 26 25 24 24 23 23 22 20 21 21 22 24 23 27 25 26 25 24 68 106 98 100 103 97 102 100 101 104 99 100 100 98 99 93 77 60 47 35 26 21 20 21 23 28 33 36 43 59 86 102
63 64 61 59 56 53 54 55 56 58 65 72 77 80 86 93 99 101 101 97 96 94 92 89 83 78 73 68 64 60 57 53 49 46 43 41 39 38 36 35 33 31 31 30 30 29 27 26 26 24 25 24 24 24 22 22 22 23 25 24 26 26 28 26 21 53 95 99 99 102 101 100 101 102 102 101 99 99 100 99 98 96 86 68 48 32 23 21 22 23 26 32 37 41 55 84 99
71 71 67 67 65 65 74 79 80 83 89 97 99 98 99 104 108 105 101 97 94 93 89 83 76 70 65 62 59 56 53 50 47 46 43 41 39 37 36 34 33 31 30 30 29 29 28 27 26 25 25 25 25 25 23 22 22 23 24 25 26 26 28 28 22 32 63 93 103 100 101 101 99 102 101 100 101 99 99 99 99 100 99 93 78 54 31 20 19 21 25 29 35 40 47 66 86
86 87 86 90 88 88 99 101 99 101 102 104 105 102 100 104 106 101 95 90 86 82 77 72 67 63 60 57 55 53 51 50 47 45 43 40 38 36 35 35 34 33 32 31 31 29 28 27 26 25 25 26 26 26 24 23 22 23 24 24 25 26 26 28 26 21 30 69 102 101 98 102 99 100 102 100 100 100 98 98 100 100 99 100 101 88 64 43 28 21 22 24 30 37 43 53 71
101 103 102 106 104 103 108 106 104 105 103 102 103 102 101 102 102 95 88 80 74 71 66 62 59 56 55 54 53 52 50 49 47 45 42 40 38 36 35 35 35 36 35 34 33 30 28 27 26 26 25 25 27 28 26 24 23 22 23 23 24 24 25 25 27 25 19 38 84 103 98 99 101 101 102 101 99 99 100 100 99 100 100 98 100 100 94 82 66 50 34 24 22 28 39 47 57
107 109 107 108 108 106 106 105 104 102 101 102 101 102 100 99 99 95 88 77 67 64 62 59 56 54 53 52 52 51 49 48 45 43 42 40 38 36 35 35 36 36 36 36 36 34 31 28 26 25 25 25 25 27 28 26 24 23 23 23 23 23 23 24 25 28 24 21 49 88 102 99 99 104 107 103 100 99 100 104 102 99 99 101 102 100 99 98 94 88 74 52 32 20 24 38 52
109 111 109 108 110 107 104 106 107 102 101 102 101 102 100 99 101 100 95 88 76 70 67 63 58 54 52 51 51 49 48 47 46 44 43 41 38 37 35 35 36 37 36 36 37 37 34 31 28 26 25 25 24 25 26 26 26 24 23 22 23 23 22 23 24 25 30 24 21 44 81 101 100 101 107 103 99 98 100 104 102 98 98 100 102 100 99 100 99 99 98 90 72 47 26 23 37
107 107 107 107 110 109 104 105 106 102 100 101 102 101 100 101 102 102 100 99 93 85 79 70 61 56 54 52 50 49 49 48 47 47 45 42 40 38 36 35 35 36 37 38 38 37 37 34 31 29 27 26 25 25 25 25 25 24 24 23 22 23 23 22 23 23 27 29 20 12 33 75 99 101 102 102 99 97 100 104 98 93 99 99 98 100 98 99 100 99 100 100 98 88 67 42 28
105 104 103 103 104 104 102 101 102 101 100 100 101 101 102 101 100 102 102 101 100 97 91 80 69 63 57 54 52 51 52 50 48 48 47 44 41 39 37 36 36 36 36 37 38 37 37 36 34 32 30 28 27 27 27 26 25 24 23 24 23 23 24 23 23 24 24 26 25 13 5 30 73 96 101 100 100 99 100 101 92 86 95 96 93 98 99 98 100 100 99 99 99 99 96 85 63
106 104 103 101 99 100 101 101 100 100 100 99 101 100 101 101 98 100 104 104 102 100 98 89 78 69 59 55 55 54 54 52 50 49 47 45 42 41 39 37 37 37 37 37 37 38 37 38 36 35 33 31 29 28 28 28 26 25 24 23 23 23 23 24 24 24 25 24 23 20 8 6 33 70 96 102 99 103 105 100 88 78 86 94 93 96 100 100 100 100 99 99 100 99 99 99 96
100 102 103 101 101 102 99 101 102 101 102 100 100 100 100 102 100 99 101 105 105 103 102 97 88 81 69 60 57 56 54 52 51 49 47 46 43 42 41 40 39 37 37 37 37 38 38 39 37 36 35 34 33 31 30 29 27 27 25 24 23 23 23 23 25 25 24 26 23 21 16 7 11 34 72 101 103 100 104 105 94 77 77 87 89 94 99 99 100 99 99 99 99 100 100 98 99
91 94 98 98 103 104 97 101 106 106 107 103 100 101 102 101 100 99 98 101 106 108 105 100 98 94 88 78 66 60 57 51 49 48 47 47 45 44 43 41 40 39 38 39 38 38 39 39 38 38 37 35 35 34 32 30 29 28 27 25 24 23 24 23 23 25 24 25 25 23 21 15 12 13 37 80 104 102 99 103 101 87 77 73 74 86 96 98 99 99 100 101 99 99 100 100 99
97 96 99 98 102 103 97 101 105 104 106 105 103 105 105 103 101 101 100 99 101 106 105 102 102 100 96 93 81 69 64 58 52 48 47 47 45 45 44 43 42 40 40 40 40 39 39 39 39 38 38 37 36 35 35 33 31 30 28 27 26 23 24 24 23 24 24 25 25 24 23 20 18 13 16 45 86 104 100 98 102 98 89 77 66 69 79 89 98 101 99 99 100 100 100 101 98
103 102 102 101 102 103 101 103 105 104 105 104 105 104 102 103 102 102 105 101 95 95 98 101 103 102 99 96 90 79 71 66 60 54 50 47 45 45 44 43 42 41 40 40 40 40 40 40 39 39 38 38 37 36 36 34 33 32 30 28 28 26 24 24 24 24 23 24 24 24 24 23 20 18 15 22 53 88 101 99 100 101 100 94 80 66 64 74 89 97 99 100 99 99 100 102 99
103 102 102 103 103 105 107 107 108 108 106 106 107 102 99 101 99 100 106 101 95 92 90 94 100 101 99 95 91 86 78 72 68 64 59 53 50 48 46 44 42 41 40 39 39 39 40 40 40 40 39 38 38 37 36 35 34 32 32 31 29 28 26 25 24 24 24 23 23 23 23 24 23 21 19 17 28 59 90 102 101 100 101 102 98 87 75 67 71 78 85 92 97 98 100 99 99
105 101 102 104 103 105 108 106 106 106 106 107 107 103 104 104 97 99 105 99 96 97 93 93 95 97 97 96 93 88 82 76 72 67 64 61 59 55 54 50 45 43 41 40 39 38 38 38 38 39 39 39 38 38 36 35 34 33 32 32 31 30 28 27 26 25 24 23 23 23 22 23 23 23 22 21 22 34 64 92 103 102 100 101 102 102 96 82 70 63 61 73 88 94 98 99 98
104 101 103 105 103 105 107 105 105 105 106 106 102 102 108 108 101 99 105 103 99 101 101 99 97 97 98 99 99 95 89 83 76 70 64 61 59 58 58 57 54 50 46 43 41 39 38 36 36 36 37 39 39 38 38 36 35 34 33 32 32 32 30 29 28 27 26 24 24 23 23 22 22 23 23 23 25 26 40 67 92 104 103 101 99 100 102 99 92 78 65 72 88 93 94 98 100
100 101 102 101 101 106 106 106 107 107 108 104 98 102 109 110 108 102 101 106 105 102 104 104 101 99 98 97 99 98 95 90 84 79 74 68 63 58 56 55 55 54 52 49 45 43 41 38 36 35 34 35 36 36 37 37 36 34 34 33 32 32 31 30 30 29 28 27 25 24 23 22 21 22 23 23 25 27 30 42 64 90 103 103 100 99 101 101 101 99 92 90 95 97 93 93 99
95 98 99 98 100 104 104 105 106 104 107 104 97 101 106 107 109 106 103 105 106 105 104 103 102 101 100 97 95 93 94 94 89 85 83 82 78 72 66 60 55 53 52 51 50 48 44 41 38 36 35 34 33 33 33 33 34 33 33 33 32 32 31 31 31 30 30 28 28 26 24 24 22 21 22 22 23 25 28 31 40 60 84 99 101 100 101 101 101 102 104 101 97 102 100 94 97
77 83 88 92 96 99 101 104 104 101 101 101 97 97 102 107 108 105 106 107 107 106 104 101 101 103 102 96 93 92 91 91 89 86 83 84 84 83 82 77 70 63 56 51 50 49 48 45 41 37 36 34 33 32 32 31 31 30 30 29 29 29 29 30 29 29 30 29 29 28 27 26 24 23 21 21 22 22 24 28 31 37 53 75 90 98 100 101 102 100 101 101 98 102 104 97 98
60 63 66 71 75 79 85 91 93 92 90 91 97 96 96 104 106 102 104 109 109 104 101 101 102 102 101 96 93 92 91 90 87 84 80 81 83 84 84 83 80 76 69 61 54 49 47 47 45 43 40 38 37 34 32 32 31 29 28 26 25 25 24 25 25 26 27 27 28 28 28 27 26 25 23 21 21 21 22 23 26 29 33 44 62 82 94 99 103 102 99 99 100 101 100 100 101
55 55 54 56 57 58 63 68 68 72 72 73 83 86 86 95 102 99 98 101 106 104 97 96 96 95 97 96 95 95 93 91 87 82 78 78 81 82 81 79 78 77 75 72 66 58 51 46 45 45 45 44 42 39 36 35 33 31 29 27 25 24 23 22 22 22 22 23 24 24 25 26 26 26 26 24 22 20 21 21 22 24 26 29 36 51 71 85 94 102 102 98 99 102 99 98 102
55 54 52 52 53 52 54 56 55 56 56 56 62 66 70 80 86 87 87 89 98 104 100 94 90 90 91 92 95 96 95 94 90 85 79 77 77 77 76 75 74 75 75 74 72 68 62 53 47 43 43 44 43 42 40 38 36 35 33 31 28 26 24 23 22 21 20 20 20 20 21 22 23 24 24 25 25 23 21 21 20 21 22 24 25 29 42 55 67 83 98 101 100 102 100 97 100
67 65 61 57 59 56 51 50 52 51 47 47 50 53 58 62 63 67 72 75 80 88 92 91 89 89 88 88 90 92 93 94 93 91 86 81 77 75 73 72 72 73 73 70 70 69 66 60 53 46 41 39 39 39 38 37 36 36 35 33 31 29 27 26 25 23 22 21 20 19 19 19 19 20 21 21 23 24 24 22 21 21 20 21 22 22 25 32 40 50 69 91 101 101 99 98 100
73 76 75 72 75 73 62 56 54 52 49 45 44 48 51 50 50 55 61 64 65 68 72 76 77 78 77 78 79 80 82 84 86 89 88 86 82 78 75 73 72 70 66 62 60 61 62 61 58 53 46 40 37 35 34 34 32 32 32 31 30 29 28 27 26 25 24 23 22 21 20 19 19 18 18 19 19 20 22 23 23 22 21 20 20 20 20 21 26 30 38 60 84 97 100 99 100
72 75 75 74 77 77 75 72 66 60 58 54 48 48 50 48 46 51 58 60 56 57 61 63 63 65 66 67 67 68 68 69 71 74 76 77 77 75 73 70 66 62 56 52 49 50 53 55 56 54 50 45 39 35 32 31 29 28 28 27 26 26 25 25 24 23 23 23 22 22 21 20 20 19 18 18 17 17 18 19 21 22 22 21 20 20 20 18 19 22 24 31 49 73 90 98 100
70 67 66 67 68 67 69 72 69 66 66 64 59 57 60 62 60 59 64 66 60 54 55 57 56 55 58 61 63 63 63 62 62 62 62 62 62 61 60 58 54 50 47 43 41 41 42 45 48 50 49 47 44 40 34 30 27 26 25 24 24 23 23 22 22 21 21 20 20 20 20 19 19 19 19 18 18 17 17 16 17 19 20 21 21 20 20 19 18 19 20 20 26 39 59 79 91
72 63 58 61 65 68 72 70 65 62 61 63 62 60 62 72 79 81 79 77 75 68 61 60 57 54 55 56 58 59 60 60 59 58 58 57 56 54 51 48 46 43 41 40 38 37 36 37 39 41 44 45 44 42 37 32 27 25 24 24 23 22 22 21 21 20 20 20 20 19 19 19 18 18 18 18 18 18 18 17 16 16 17 17 19 20 19 20 19 19 19 19 19 22 30 45 63
83 77 70 65 64 68 73 72 66 61 58 57 55 51 53 63 76 87 86 82 83 81 76 72 67 62 61 59 58 58 58 57 57 54 53 52 52 52 49 45 42 41 39 37 36 35 34 34 34 34 36 38 39 38 36 33 28 25 24 23 23 22 22 21 21 21 21 21 21 21 20 20 20 20 18 17 17 17 17 18 17 17 16 15 16 17 17 18 18 19 19 19 19 19 20 24 32
74 74 72 70 66 63 63 62 63 66 65 60 50 39 40 51 60 72 88 97 94 84 77 74 71 68 65 63 65 66 65 64 64 61 58 56 53 52 50 47 43 41 37 36 35 34 33 33 32 32 32 32 33 33 32 30 28 26 25 24 23 23 22 22 22 22 23 23 23 23 23 22 22 21 21 20 19 17 16 16 17 17 17 16 16 15 16 16 17 17 18 18 19 20 19 20 20
Wind_Speed
86 86 86 86 86 86 86 86 85 85 85 86 86 86 87 88 88 88 88 88 89 89 90 90 90 89 89 88 87 86 86 85 85 86 88 88 87 88 89 91 93 95 97 97 94 94 96 97 98 97 93 91 88 85 81 76 73 70 68 65 63 62 62 62 63 62 62 63 58 53 51 50 50 51 51 51 49 48 48 47 46 45 45 45 45 42 39 33 29 29 26 24 25 24 21 20 23
88 88 88 88 88 88 88 88 88 88 88 88 88 87 87 88 89 90 90 91 92 92 93 93 93 92 92 91 90 89 89 88 88 89 90 90 90 91 93 95 97 98 99 99 98 97 98 98 96 91 88 87 83 79 75 72 69 67 64 62 61 60 59 59 60 60 59 59 57 54 54 55 55 54 51 49 47 47 46 45 44 43 43 43 42 39 35 30 27 28 24 24 26 25 22 22 25
91 91 91 91 91 91 91 91 91 91 91 91 90 89 89 89 90 91 92 93 93 94 95 95 95 95 95 94 93 92 92 92 92 92 92 93 94 95 96 98 99 100 100 100 99 98 95 93 87 83 83 82 77 74 71 69 67 64 62 61 59 58 57 54 55 56 56 57 57 58 58 59 57 54 51 49 47 46 45 43 42 41 41 40 39 35 32 29 27 27 24 27 30 28 23 23 28
94 94 94 94 94 94 94 94 94 94 94 93 92 92 92 92 92 93 94 94 95 96 96 96 96 96 96 95 95 94 94 94 94 94 95 95 96 97 99 100 101 101 101 100 98 95 90 87 85 81 80 76 72 69 67 65 64 62 61 59 57 55 54 51 50 53 56 56 56 59 60 59 57 53 51 50 48 46 44 42 40 38 38 37 36 33 31 29 26 26 26 29 32 31 25 25 31
97 97 97 96 96 96 96 96 97 97 97 96 95 95 95 95 95 95 96 97 97 97 97 97 97 97 97 96 96 96 96 96 96 96 97 98 99 100 101 102 102 102 101 98 95 91 88 86 84 80 75 71 67 65 63 63 62 61 60 58 56 53 51 48 48 51 54 55 55 58 59 58 56 53 51 50 47 44 42 40 37 36 36 35 33 32 30 28 26 26 27 31 33 32 28 28 33
100 100 99 99 99 99 98 98 99 100 99 98 98 98 99 98 98 98 99 99 100 99 99 99 99 99 99 99 99 99 99 99 99 99 99 100 101 101 102 102 102 101 99 96 91 87 86 85 81 76 70 65 62 61 61 61 61 60 59 57 53 51 48 45 47 49 52 54 55 56 57 56 54 52 51 49 46 42 40 38 36 35 35 34 33 31 29 27 26 26 29 33 35 33 29 30 33
102 102 101 101 101 101 100 101 102 101 101 101 101 101 102 102 102 101 101 102 102 102 101 101 101 101 101 102 102 102 102 101 101 101 102 102 102 102 102 101 100 98 95 92 89 85 84 81 77 71 64 59 58 57 57 56 56 57 57 54 48 46 45 45 48 48 50 53 54 55 55 53 51 50 51 48 45 40 38 37 36 35 34 34 32 30 28 27 26 27 33 35 35 32 30 33 35
103 103 103 103 102 103 102 103 103 103 102 103 104 104 104 104 104 104 104 104 104 104 104 104 104 104 104 104 104 104 103 103 103 103 103 103 102 101 100 98 96 94 91 88 86 84 81 77 72 64 56 53 52 47 42 42 48 49 49 48 45 44 45 46 47 48 50 52 52 54 53 51 50 50 48 45 42 38 36 36 35 35 33 33 32 30 28 27 26 30 35 36 35 33 34 36 36
105 105 104 104 104 104 104 104 104 104 104 105 106 106 106 106 106 106 106 107 107 107 107 107 107 107 107 107 106 106 105 105 105 104 103 102 101 99 97 95 92 90 88 86 83 80 77 73 66 58 50 48 46 37 28 31 40 42 41 42 42 44 45 46 48 49 50 50 51 52 50 50 49 48 44 40 38 36 35 35 35 34 32 32 31 30 29 27 27 33 37 37 35 33 36 38 37
106 106 106 106 105 105 106 106 106 106 106 106 107 108 108 107 107 107 108 108 108 108 109 109 109 108 108 108 107 106 105 105 104 103 101 99 97 95 93 91 89 87 85 83 80 77 74 68 60 52 47 45 44 36 31 34 37 38 40 41 41 43 45 45 47 47 48 49 49 49 48 49 48 43 39 36 35 34 34 34 34 33 32 32 31 30 29 28 29 36 39 37 36 34 35 36 38
104 105 106 106 106 106 107 107 107 107 107 107 107 108 108 108 107 107 107 107 108 108 108 108 108 108 107 106 105 104 103 102 101 99 97 95 93 91 90 88 87 85 82 80 77 74 70 64 56 49 45 43 41 37 36 39 39 41 43 42 43 44 44 42 42 43 45 45 44 44 46 45 42 37 33 33 33 33 33 34 33 32 31 31 31 30 29 29 31 39 41 38 37 35 33 34 39
102 103 104 104 105 105 106 106 106 107 107 107 107 107 107 107 107 106 107 106 106 106 106 106 105 105 104 103 102 101 100 98 97 95 93 92 90 88 86 85 83 81 79 77 74 71 67 61 54 49 44 39 37 35 37 40 43 46 47 45 43 43 40 38 38 39 41 41 39 40 41 38 34 31 30 31 30 30 31 32 33 32 31 31 31 30 30 30 33 41 43 41 37 37 34 33 39
100 101 101 101 102 103 103 104 105 106 106 105 105 106 106 105 105 105 105 105 105 104 104 103 103 102 101 100 99 97 96 95 93 91 90 88 86 85 83 81 79 77 76 73 71 68 64 59 53 48 45 42 41 40 39 39 41 44 46 43 40 40 38 37 38 38 38 38 38 37 35 32 29 27 26 27 27 28 29 32 33 31 30 31 30 30 30 30 35 42 45 44 39 38 38 34 38
97 98 98 98 99 100 100 101 102 103 102 102 102 103 103 103 103 103 103 103 102 102 101 100 100 98 97 96 95 94 93 92 90 88 87 85 83 81 79 78 75 73 72 70 68 65 62 57 52 49 46 47 49 48 47 45 43 42 43 43 42 42 40 38 38 38 39 39 37 33 31 29 25 23 23 24 25 26 28 30 31 30 30 30 30 30 31 31 35 42 45 46 42 39 40 38 38
94 95 96 96 97 97 97 98 99 99 99 99 99 99 99 99 99 99 99 99 98 98 97 96 96 94 94 93 92 92 90 89 87 85 84 82 80 78 76 74 72 70 68 67 65 62 60 56 52 49 47 48 51 52 53 52 48 46 46 46 46 44 42 40 40 40 41 39 33 29 29 27 23 22 22 22 23 23 25 27 28 29 30 30 30 30 31 32 36 42 45 47 45 40 40 40 41
94 94 94 94 95 95 95 95 96 96 95 96 95 95 95 95 96 95 95 94 93 94 92 92 92 91 91 91 90 89 87 85 83 82 80 78 76 74 72 70 68 66 65 64 62 60 58 56 52 50 48 48 50 53 55 57 55 53 51 48 46 45 43 41 41 40 38 34 31 29 27 25 24 22 22 21 21 22 23 25 27 29 30 30 30 30 30 31 36 41 44 48 48 42 39 40 42
94 94 93 93 94 93 93 94 94 93 93 93 92 93 92 92 92 91 91 90 89 89 89 88 89 89 89 89 87 85 83 82 80 78 75 74 72 70 68 67 65 63 62 61 60 59 57 55 53 50 49 49 50 52 55 58 59 57 53 49 46 43 41 39 37 34 31 30 29 28 26 25 24 22 21 22 21 22 22 24 27 29 30 30 29 29 29 30 34 40 43 47 50 46 40 38 42
93 93 93 93 92 92 91 91 91 91 91 90 90 90 89 89 88 88 87 86 86 86 86 86 86 87 87 86 84 82 80 78 76 74 72 70 68 67 66 64 63 61 59 58 57 56 56 54 53 51 49 49 50 51 54 58 60 59 55 50 45 40 36 34 32 30 29 29 28 27 25 25 25 22 21 22 22 22 23 24 27 29 30 29 29 28 28 29 33 39 43 46 51 49 42 38 40
92 91 91 91 90 89 89 89 89 89 88 88 87 87 86 85 85 84 84 83 83 83 83 83 83 84 83 82 80 78 76 74 72 70 68 67 65 64 63 62 60 58 56 55 54 54 53 53 52 51 50 49 49 50 53 56 58 57 54 50 45 39 33 29 29 30 30 29 27 26 26 26 26 23 22 22 22 23 24 26 28 29 29 28 28 28 29 29 31 38 45 48 50 48 44 39 38
89 89 88 88 87 86 86 86 86 86 85 84 84 83 83 82 81 81 80 80 81 80 80 80 79 80 79 77 75 73 71 69 68 66 65 64 63 61 60 59 57 56 54 53 52 51 51 50 50 50 49 49 48 49 50 54 56 56 54 51 47 41 33 27 26 28 29 28 27 26 25 25 25 24 23 23 23 24 25 27 28 29 29 28 28 28 29 30 31 37 45 50 49 46 43 41 38
85 85 84 84 84 83 83 82 82 82 81 80 80 79 79 78 78 78 78 78 78 77 76 76 76 75 74 72 70 68 66 65 63 62 62 61 60 58 57 56 54 53 52 50 50 49 49 49 49 49 49 48 48 48 48 51 54 55 55 53 49 43 36 29 25 26 27 28 27 26 25 23 24 24 24 24 24 24 25 26 28 29 29 29 29 28 28 30 32 36 44 50 50 45 42 43 41
80 80 79 79 79 78 77 77 77 77 76 76 76 75 75 75 75 75 75 75 74 73 73 72 71 70 68 67 65 64 62 60 59 59 59 58 56 55 54 52 51 50 49 48 47 47 46 46 47 47 47 47 47 47 47 49 51 52 53 52 50 45 40 32 26 25 25 27 28 26 24 23 24 26 25 25 25 24 24 25 27 29 29 30 30 29 28 29 31 34 41 49 51 47 43 44 44
74 74 73 73 73 72 72 72 72 72 72 71 71 71 71 71 71 71 71 70 69 69 68 67 65 64 63 62 61 60 59 57 57 56 55 55 54 52 50 49 48 47 46 45 44 44 44 44 44 44 45 45 45 45 45 46 47 48 49 50 49 46 42 37 30 27 24 25 26 26 24 24 25 26 26 25 24 22 22 23 25 27 29 30 31 30 29 29 30 33 39 46 51 49 45 44 45
67 67 67 67 67 67 67 67 67 67 67 67 67 67 67 67 67 67 66 65 65 64 63 61 60 59 59 58 57 56 55 55 54 53 52 51 51 49 46 45 44 44 42 42 42 41 42 42 42 42 42 42 43 43 43 44 45 45 47 48 49 46 44 41 36 29 25 23 24 25 24 24 25 25 25 24 23 21 21 22 23 25 28 29 30 29 29 28 29 31 35 43 49 51 47 45 46
61 61 62 62 62 62 62 62 62 62 62 62 63 63 63 63 63 62 60 60 60 59 58 57 56 56 55 54 53 53 52 52 51 51 49 48 47 45 43 41 41 41 40 40 40 40 40 40 40 40 40 40 41 41 41 41 42 44 46 47 48 46 44 43 39 31 26 25 24 25 23 23 25 24 24 23 21 20 20 19 20 22 25 27 27 27 27 28 29 30 33 38 47 51 50 47 47
56 56 57 58 58 58 58 58 58 58 58 59 59 59 59 59 59 57 55 55 55 55 54 53 52 52 51 50 49 49 49 49 49 48 46 44 42 41 39 38 38 38 38 39 38 38 38 39 38 38 38 38 38 39 39 40 41 43 45 46 46 46 44 43 42 34 29 28 26 25 24 23 24 22 23 23 20 20 19 18 18 19 22 24 24 24 24 26 28 29 31 34 42 50 52 50 48
52 53 53 54 54 54 54 55 55 55 55 56 56 56 55 55 54 52 51 51 51 50 49 48 48 47 47 46 46 45 46 46 45 44 42 40 38 37 36 36 36 36 37 37 37 37 37 37 37 37 37 36 37 37 38 39 41 42 44 45 45 45 43 43 42 37 31 29 27 26 25 25 25 22 23 24 21 21 20 18 17 17 19 21 22 23 22 23 26 27 29 31 37 46 51 50 49
49 50 50 51 51 51 51 51 52 52 52 52 52 51 51 50 48 46 46 47 46 45 44 44 44 43 43 43 43 43 43 43 42 40 38 36 34 33 33 33 35 35 36 36 36 36 36 36 36 36 36 35 36 37 37 38 40 41 43 44 44 44 43 42 41 38 33 28 27 28 27 27 27 25 24 24 22 22 22 19 17 16 17 19 21 22 22 23 24 25 27 29 33 41 48 49 48
47 47 48 48 48 48 48 48 49 48 48 48 48 47 46 45 43 42 43 43 42 42 41 41 41 41 40 41 41 41 41 41 39 38 36 33 31 31 31 32 34 35 35 35 35 35 35 35 36 36 36 35 35 36 37 38 39 40 42 43 43 43 43 42 41 41 34 26 28 30 30 29 29 29 26 24 24 24 23 21 19 18 17 18 20 22 23 23 24 24 24 26 29 36 44 47 48
44 45 45 46 46 45 45 45 45 44 44 44 44 43 41 41 40 40 40 40 40 39 39 39 39 39 39 39 40 40 40 39 37 36 34 31 30 29 30 31 33 34 34 34 34 35 34 34 35 35 35 35 35 36 38 39 40 40 41 42 42 42 42 42 42 44 36 27 29 31 32 32 31 32 30 27 25 24 24 22 21 21 19 18 19 21 23 24 24 23 23 24 26 32 40 46 48
42 43 43 43 43 42 41 42 41 40 40 40 40 40 38 38 39 38 38 38 38 38 37 38 38 39 39 39 40 40 39 37 35 34 32 30 29 29 30 31 33 33 33 34 34 34 35 34 35 36 36 36 36 36 38 39 40 41 41 42 42 41 41 41 42 45 41 32 32 33 34 34 34 34 32 29 26 25 24 22 22 24 22 19 19 20 22 23 23 23 22 22 24 28 35 43 47
40 41 40 40 40 38 39 39 38 37 38 38 39 38 36 37 38 37 37 37 37 37 37 38 39 39 39 40 41 40 38 36 34 33 31 30 29 29 30 31 32 33 34 34 35 35 35 35 35 36 36 36 36 37 37 39 40 41 42 42 43 42 41 42 42 44 45 39 36 37 37 37 36 36 34 31 28 27 27 25 25 26 24 21 20 20 20 21 21 21 20 21 22 25 30 39 45
38 38 37 39 38 36 37 37 35 36 36 37 38 37 34 36 38 37 37 37 37 38 38 39 39 39 40 41 42 40 37 36 34 33 32 31 31 30 31 32 33 34 35 35 36 35 35 35 35 36 36 37 37 37 38 38 40 41 42 42 43 43 42 42 43 44 45 43 41 41 41 40 40 39 37 34 31 31 31 29 28 27 25 23 23 22 21 20 20 20 19 20 21 23 26 33 40
38 38 37 38 38 36 37 36 35 35 36 37 37 37 35 35 38 38 38 38 38 39 40 40 40 40 41 43 42 40 37 37 36 34 34 34 33 32 32 33 34 35 36 36 37 36 36 36 36 36 36 37 38 39 39 39 40 41 42 43 43 44 44 43 44 45 45 44 44 44 43 42 42 42 39 36 34 34 33 32 31 29 26 25 25 25 23 21 20 19 19 19 20 21 24 27 33
38 38 37 38 39 38 37 36 38 37 37 38 38 38 37 36 39 40 40 39 40 40 40 40 41 42 43 43 42 40 39 39 38 37 38 37 35 34 34 34 36 37 37 37 37 38 37 37 37 36 37 37 38 39 40 40 41 41 42 43 43 44 45 45 45 46 46 44 45 46 46 44 43 42 41 39 37 36 36 36 35 32 28 27 27 25 25 25 22 20 20 19 19 20 22 25 28
40 41 40 40 42 41 38 38 41 40 39 39 39 40 40 39 41 42 41 40 40 40 40 41 43 44 44 44 42 40 40 40 40 40 40 39 37 36 35 36 37 38 38 38 39 39 39 39 38 38 38 38 38 39 39 40 41 42 42 43 44 44 45 46 46 47 47 46 46 47 48 47 45 44 44 42 39 37 39 40 39 35 32 32 30 26 28 29 27 25 22 20 20 20 22 24 27
42 43 43 43 44 43 40 41 43 42 41 40 40 42 43 42 41 40 40 39 41 42 42 44 45 44 44 44 44 42 42 42 42 42 42 40 39 38 37 37 38 39 39 40 40 40 40 41 40 40 40 40 39 40 40 40 41 42 43 43 44 45 45 46 47 48 48 47 47 48 49 49 48 47 46 46 44 41 41 43 42 40 38 37 33 29 30 31 31 31 27 23 22 21 22 24 26
43 43 44 44 44 43 42 43 43 44 44 42 42 44 45 44 41 40 39 39 42 44 45 45 44 44 45 45 45 44 44 44 44 43 43 42 41 40 40 40 40 40 41 41 41 41 42 42 43 43 43 42 42 42 42 42 42 42 43 44 44 45 46 46 47 48 49 49 49 49 50 51 50 50 49 49 48 46 45 45 45 43 42 40 36 33 33 32 33 33 30 27 25 23 23 24 25
44 44 44 44 45 45 44 44 44 45 46 44 44 45 46 44 42 41 40 40 44 46 46 44 43 44 46 46 46 46 46 46 45 44 44 43 43 43 42 42 42 42 42 42 42 42 43 43 44 44 45 45 44 44 44 44 44 43 43 44 45 46 46 47 48 49 50 51 51 51 51 52 52 52 52 52 51 50 48 49 47 45 45 43 39 36 36 35 36 36 33 31 29 26 26 26 27
46 45 46 45 46 47 45 45 47 47 47 46 46 47 47 46 44 43 43 43 45 46 45 45 45 46 47 48 48 48 48 47 47 46 45 45 45 44 44 44 44 43 43 44 44 44 45 45 45 46 46 46 47 47 46 46 46 46 45 45 45 46 47 48 49 49 50 51 52 52 52 53 54 53 54 55 55 53 50 50 50 48 47 47 44 40 39 39 38 38 37 35 33 31 30 30 31
48 48 48 48 49 49 47 48 49 48 48 48 47 49 49 48 46 46 45 46 46 46 46 46 46 47 48 49 49 49 49 49 48 47 47 47 47 47 46 46 46 45 45 45 46 46 46 47 47 47 47 48 48 48 48 48 47 47 47 47 47 47 48 49 50 51 51 52 53 54 54 54 55 56 56 56 58 58 55 50 51 52 51 50 49 47 44 43 41 41 41 40 38 36 34 34 34
51 51 52 51 51 51 50 50 51 50 50 50 50 50 50 49 48 48 48 48 48 47 46 47 48 49 49 50 50 50 50 50 50 49 49 49 49 49 49 49 49 48 47 47 47 48 48 49 49 49 49 49 49 50 50 49 49 49 49 49 49 49 49 50 51 52 52 53 53 54 55 56 56 57 58 58 58 60 60 56 51 52 54 53 52 51 49 47 45 44 43 42 42 41 39 38 37
53 53 54 53 53 53 53 52 52 52 51 52 52 51 51 51 50 50 51 51 50 50 49 49 50 50 50 50 51 52 52 52 51 51 51 50 51 51 51 51 51 50 50 50 50 50 50 50 51 51 51 51 51 51 51 51 51 51 50 51 51 51 51 51 52 53 53 54 55 55 56 57 58 58 60 61 60 60 62 62 57 53 54 56 55 53 52 52 51 50 47 44 44 44 43 41 39
55 55 56 55 55 55 55 55 55 54 54 54 54 53 53 54 53 52 53 53 53 53 53 52 52 52 51 51 52 53 53 53 53 52 52 52 53 53 53 53 52 51 51 51 52 52 53 53 53 53 53 54 54 54 54 53 53 52 52 52 53 53 53 53 53 54 54 55 56 57 57 58 59 59 60 62 63 62 61 63 64 59 55 56 57 56 55 54 54 54 53 50 48 47 45 43 43
57 57 58 57 57 58 58 58 57 57 58 57 55 54 56 57 55 54 55 55 55 55 55 55 54 54 54 53 53 54 54 54 54 53 53 54 54 54 54 53 53 52 52 52 52 53 54 54 55 55 55 56 56 56 56 56 56 55 54 54 55 55 55 55 56 55 56 56 57 58 59 59 60 60 61 63 65 65 63 63 65 65 61 57 58 59 58 57 56 55 54 54 53 51 50 47 45
58 59 59 59 59 59 60 60 60 60 60 60 57 57 58 58 58 57 56 57 58 57 57 56 56 56 56 56 56 55 55 55 55 55 55 55 55 55 54 54 53 53 53 53 53 53 54 54 55 56 57 57 58 59 59 60 60 59 58 58 57 57 58 58 58 58 57 58 58 59 59 60 61 62 63 64 65 67 67 65 65 66 66 62 60 60 60 60 59 58 57 56 55 54 54 52 50
61 60 60 60 60 61 61 62 62 62 62 62 59 59 60 60 61 61 59 60 60 59 59 58 58 58 58 58 58 57 57 57 57 56 56 56 56 56 55 54 54 53 53 53 53 53 53 53 54 55 56 57 58 60 61 62 63 63 62 62 61 61 61 60 60 60 60 60 60 60 60 61 62 63 64 64 66 67 69 69 67 67 68 67 65 62 61 61 62 62 60 59 58 56 56 56 55
62 62 62 62 62 62 63 64 64 65 65 64 62 62 62 63 64 63 62 63 63 62 61 60 60 60 60 60 59 59 59 59 59 59 58 57 57 56 56 56 56 55 55 54 53 53 53 53 54 54 55 56 58 59 60 62 63 64 64 64 64 64 64 63 63 62 62 62 62 61 62 62 63 64 65 66 67 68 69 71 71 70 70 70 69 67 64 62 64 65 63 61 61 59 58 58 58
62 62 63 63 63 64 64 66 67 68 67 65 65 65 64 65 67 65 65 65 65 64 63 63 62 62 62 62 61 62 62 61 61 61 60 59 59 58 58 58 57 57 57 56 55 54 54 53 53 54 54 56 57 59 60 61 62 63 63 63 64 64 65 65 65 65 64 64 64 64 63 64 64 64 65 66 67 69 70 72 73 73 73 72 72 71 69 66 65 66 66 64 63 62 61 60 61
63 63 63 63 65 64 65 68 69 68 68 66 66 66 65 66 68 67 66 66 66 66 65 65 64 64 64 64 63 63 63 63 63 63 62 62 61 61 60 60 59 58 58 58 57 56 55 55 55 55 56 57 58 59 60 61 61 61 61 62 62 62 63 64 65 65 66 66 66 66 66 65 65 65 66 67 68 69 71 72 74 75 75 75 75 75 74 72 69 68 68 68 66 65 63 62 63
65 65 65 64 65 66 68 70 69 69 68 66 65 66 65 67 68 67 67 67 67 67 67 67 66 66 66 66 65 65 64 64 64 64 64 64 64 63 63 62 61 60 60 59 59 58 58 57 57 57 58 59 60 61 62 62 62 61 61 61 61 62 62 62 63 64 65 66 67 68 68 68 67 67 67 68 69 70 72 73 75 76 77 78 78 78 78 77 75 72 71 71 70 68 67 65 66
67 67 67 66 67 71 72 70 70 70 70 66 64 65 66 68 68 67 68 68 68 68 68 68 68 68 68 68 67 67 66 66 66 66 66 66 65 65 64 64 63 62 62 61 61 60 60 60 60 60 60 61 62 63 63 63 63 63 63 63 62 63 63 62 63 63 64 65 66 67 69 69 70 70 69 69 70 71 72 74 75 77 78 79 80 80 80 81 80 78 75 75 75 74 72 71 71
70 70 70 69 70 75 74 72 71 72 71 68 65 65 67 68 66 66 69 69 69 68 68 69 69 69 69 69 69 69 68 68 68 68 68 68 67 67 66 66 65 65 64 63 63 62 62 62 62 63 63 63 63 64 64 65 64 64 64 64 64 64 64 64 64 64 65 65 66 67 68 69 71 72 72 72 72 72 73 75 76 77 78 80 81 82 82 82 83 82 80 78 78 79 78 76 76
74 74 74 74 75 76 76 75 75 73 73 71 67 66 68 69 67 66 69 71 69 68 69 69 69 69 69 69 69 70 70 70 70 70 70 70 69 69 68 68 67 67 66 65 64 64 63 64 64 65 65 65 64 65 65 66 66 65 65 64 65 65 65 65 65 65 66 66 67 68 69 69 70 72 73 75 75 75 75 76 77 78 79 80 81 82 83 84 84 85 85 83 81 82 82 81 80
80 79 78 78 78 78 78 79 79 77 76 74 71 69 69 69 68 69 71 72 71 70 70 70 70 69 69 69 69 70 70 70 71 71 71 71 71 70 70 70 69 68 68 67 66 65 65 65 66 66 66 66 66 66 67 67 67 66 66 66 66 66 66 66 66 66 67 67 68 69 70 71 71 72 73 75 77 78 78 78 79 80 80 81 82 83 84 85 85 86 86 87 85 84 85 85 84
85 84 82 81 81 81 82 84 83 81 79 78 76 73 71 69 70 73 74 73 73 73 73 72 72 70 70 70 70 70 71 71 72 72 72 72 72 71 71 71 70 69 69 68 67 66 66 66 67 67 67 68 68 68 68 69 68 68 67 67 67 67 67 67 67 67 68 68 69 69 70 71 72 73 74 75 77 79 80 81 81 82 82 83 83 84 84 85 86 86 87 88 89 88 87 87 87
87 87 86 85 85 85 86 87 86 85 84 83 82 78 73 72 73 76 77 76 77 77 76 75 75 73 72 72 72 72 72 72 73 73 72 72 72 72 72 72 70 70 69 68 67 67 67 67 67 67 68 68 68 69 69 70 69 69 69 69 69 69 69 69 69 69 69 70 70 70 71 71 72 73 74 75 76 78 80 82 83 84 85 85 85 86 86 86 86 87 88 89 90 90 90 89 89
88 89 89 89 89 89 90 89 87 88 88 88 88 82 75 74 76 76 78 80 81 81 79 78 78 77 76 74 74 74 74 74 75 75 74 74 73 73 73 73 72 71 70 69 68 68 68 68 68 68 68 69 69 69 70 70 70 70 71 71 71 71 71 71 71 71 71 71 71 71 71 72 72 74 75 76 77 78 79 80 83 85 86 87 87 87 88 88 88 88 89 89 90 91 92 92 92
Wind_Direction
265 266 267 268 269 269 270 270 270 270 270 269 268 268 268 269 270 271 271 272 273 274 275 275 276 277 277 278 279 279 279 280 280 281 282 282 282 283 285 286 288 289 290 290 291 292 293 294 295 297 298 298 298 298 298 297 296 295 295 294 294 295 294 290 289 290 289 288 289 291 292 291 291 291 291 289 286 284 283 282 282 282 281 280 280 278 274 272 267 265 258 247 243 244 242 226 222
264 265 266 267 268 269 270 270 270 270 270 270 269 269 269 269 270 271 271 272 273 273 274 275 276 277 278 279 279 279 280 281 281 282 283 284 285 285 286 287 288 289 290 291 292 293 294 295 296 297 297 298 298 298 296 295 294 293 293 293 294 294 293 290 288 289 288 287 287 290 290 290 291 291 291 288 285 284 283 282 281 280 279 278 276 274 270 267 262 257 242 232 240 241 239 223 215
264 265 266 267 268 269 270 270 270 271 270 270 270 270 270 270 270 271 272 272 273 274 274 275 276 277 278 278 279 279 280 281 282 282 283 285 286 286 287 288 289 290 291 292 293 294 294 295 296 297 298 298 297 296 294 293 292 291 290 291 292 292 292 289 287 287 287 286 287 286 287 289 290 290 288 285 284 285 284 283 281 279 277 275 273 269 266 264 257 251 228 219 234 237 234 218 210
264 264 265 266 267 268 269 270 270 271 271 271 271 271 271 270 271 271 272 273 273 274 275 275 276 277 277 278 279 280 280 281 282 283 284 285 286 287 288 289 290 291 292 293 294 294 294 294 295 297 297 297 296 294 292 290 289 288 288 288 289 289 288 287 286 284 283 285 285 284 286 288 288 288 286 284 284 285 285 282 279 276 273 271 270 266 263 261 252 244 221 214 229 232 229 214 206
264 264 265 266 267 268 269 269 270 270 271 271 271 271 271 271 271 272 272 273 273 274 275 275 276 277 278 279 279 280 281 282 283 284 285 286 287 288 289 289 290 291 292 293 293 293 293 294 296 296 296 295 293 291 289 287 286 286 285 285 285 285 285 285 284 281 281 285 285 284 285 287 287 287 286 285 285 286 284 281 276 273 270 268 267 264 261 256 247 236 216 212 223 226 224 213 204
264 264 265 266 267 268 268 269 270 270 271 271 271 271 271 271 271 272 272 273 273 274 275 276 276 277 278 279 280 281 281 283 284 284 285 286 287 288 289 290 290 291 291 292 293 293 293 294 295 295 295 292 289 287 287 286 285 284 284 283 283 282 282 284 283 281 282 286 286 284 284 285 286 285 285 286 286 285 282 277 273 270 267 266 264 263 258 252 244 227 209 212 221 221 221 214 206
264 264 265 266 267 267 268 269 269 270 271 271 271 271 271 271 272 272 273 273 274 274 275 276 276 277 278 279 280 281 282 283 284 285 285 286 287 288 289 289 290 290 291 292 292 292 293 294 295 295 293 289 286 287 288 287 286 284 283 281 280 281 282 283 283 281 283 285 285 283 283 283 283 283 284 284 284 283 278 273 269 267 264 263 262 259 256 250 239 218 206 214 219 219 220 215 209
264 265 265 266 266 267 268 268 269 270 270 271 271 271 271 271 272 273 273 274 275 275 276 276 277 278 278 279 280 281 282 283 284 285 285 286 287 287 288 288 289 289 290 291 292 292 292 293 294 293 289 285 285 287 290 289 286 284 281 277 277 279 280 281 280 281 283 284 284 282 282 282 282 282 282 281 281 279 273 269 265 263 260 259 258 257 255 246 231 210 206 213 215 217 219 215 212
264 265 265 266 266 267 267 268 269 269 270 270 270 271 271 272 272 273 274 274 275 276 276 277 277 278 279 279 280 281 282 283 283 284 285 286 286 287 287 287 288 289 290 290 291 291 291 292 291 288 283 281 280 279 279 278 280 282 279 276 274 275 277 278 277 279 281 283 283 282 282 282 281 280 279 278 277 274 269 265 261 258 255 255 256 256 251 240 225 207 205 210 209 213 218 216 213
264 264 265 265 266 267 267 268 268 269 269 269 270 270 271 271 272 273 273 274 275 275 276 276 277 278 278 279 280 281 281 282 283 283 284 285 285 286 287 287 288 288 289 289 289 289 289 290 288 283 278 276 274 271 265 264 271 275 274 273 272 273 275 274 275 277 281 283 283 283 284 283 281 278 276 275 272 268 265 260 256 254 252 252 253 253 247 237 221 205 203 206 206 209 216 217 212
264 264 265 265 266 266 267 267 268 268 268 269 270 270 271 271 272 273 273 274 274 275 275 276 276 277 278 279 279 280 281 281 282 283 284 285 285 286 286 287 287 287 288 288 288 287 287 286 282 277 273 269 267 265 259 258 261 264 267 271 271 270 271 270 273 277 281 284 283 286 287 285 281 276 273 270 267 263 259 255 252 251 250 251 251 249 243 234 217 203 202 203 205 207 211 215 210
264 264 265 265 265 266 266 267 267 268 268 269 270 270 271 271 272 273 273 274 274 275 275 276 277 277 278 279 279 280 281 281 282 283 284 284 285 285 286 286 286 287 287 286 286 285 285 283 278 273 268 257 251 251 251 253 254 257 262 267 268 265 265 270 275 279 281 281 283 289 289 284 279 274 270 265 262 258 253 251 251 250 248 249 248 245 239 230 213 202 202 203 204 206 206 212 213
264 265 265 265 265 266 266 267 267 268 268 269 270 271 271 272 272 273 273 274 275 275 276 277 277 278 279 279 279 280 280 281 282 283 284 284 284 285 285 285 285 285 285 284 284 283 282 279 274 269 262 249 241 239 239 242 245 251 256 259 262 263 267 272 276 278 278 279 283 289 285 278 274 270 265 260 256 253 251 250 250 249 246 245 243 240 235 225 211 202 203 204 204 206 206 213 219
264 265 265 265 265 266 266 267 267 268 269 269 270 271 271 272 273 273 274 275 275 276 277 277 278 278 278 279 279 280 280 281 282 283 283 284 284 284 284 284 283 283 282 282 281 280 279 276 271 266 259 250 244 239 233 233 238 245 250 251 257 265 269 271 274 276 276 280 283 282 279 274 269 263 259 256 254 251 251 251 250 247 243 243 240 236 232 223 211 203 204 206 204 206 210 216 221
264 264 265 265 265 266 266 267 267 268 269 269 270 271 272 272 273 274 274 275 276 276 277 277 277 278 278 278 279 280 280 281 282 282 283 283 283 282 282 282 281 281 280 280 279 278 276 273 269 264 257 250 245 241 235 232 237 243 247 251 258 264 266 267 271 273 276 282 278 273 277 273 262 257 255 253 252 250 249 250 248 245 242 241 238 234 231 222 210 204 205 206 204 206 212 219 221
264 264 265 265 265 266 266 267 267 268 269 269 270 271 272 272 273 274 275 275 276 276 276 277 277 277 277 278 279 279 280 281 281 281 282 282 281 281 280 279 279 278 278 277 276 275 273 270 267 263 257 250 244 240 236 234 238 243 247 252 260 264 265 266 268 271 276 278 270 269 274 270 261 257 253 249 248 246 245 245 243 242 243 241 238 233 229 222 210 205 207 208 206 207 212 221 224
264 264 264 265 265 266 266 267 267 268 269 269 270 271 271 272 273 274 274 275 275 275 276 276 276 276 277 278 278 279 279 280 280 280 280 279 279 278 277 276 276 275 275 274 273 272 270 268 265 262 256 251 245 240 237 236 238 242 246 252 258 262 264 265 266 268 270 269 266 267 271 270 264 256 252 249 245 243 241 241 241 241 241 239 236 232 229 223 213 207 208 210 209 208 211 219 226
263 264 264 264 265 265 266 267 267 268 269 269 270 270 271 272 272 273 273 274 274 274 274 275 275 276 277 277 278 278 278 279 278 278 277 276 276 275 274 273 273 272 271 270 270 269 268 266 264 261 257 252 247 241 238 237 237 240 244 249 252 256 261 263 263 262 261 262 263 264 267 269 262 251 250 251 246 243 239 238 240 239 239 238 235 232 230 227 219 211 208 211 212 212 214 218 226
262 263 263 264 264 265 266 266 267 268 268 269 269 270 270 271 271 271 272 272 272 273 273 274 275 275 276 277 277 277 277 277 276 276 275 274 273 272 272 271 271 270 268 267 266 265 265 264 263 261 257 252 248 243 239 237 237 239 242 245 247 251 255 257 258 257 257 259 259 260 264 267 258 247 247 252 250 244 239 237 237 237 238 239 238 235 233 229 224 215 209 211 215 217 219 217 222
261 262 262 263 264 264 265 265 266 267 267 268 268 269 269 269 270 270 270 270 271 272 272 273 274 274 275 276 276 275 275 274 274 274 273 272 271 271 270 270 269 268 266 264 263 262 261 260 260 259 257 253 249 245 240 238 237 237 240 242 244 246 247 247 251 253 253 253 253 256 261 264 254 242 244 250 250 246 241 239 237 236 235 239 242 239 237 231 225 219 211 212 216 219 219 215 216
261 261 262 262 263 263 264 265 265 266 266 266 267 267 267 268 268 268 269 269 270 271 271 272 272 273 274 274 273 273 272 272 271 270 270 270 270 269 268 267 267 266 264 263 260 259 258 257 256 256 255 253 249 245 241 238 237 236 237 240 241 242 240 238 243 249 248 247 248 252 256 257 249 239 241 245 247 247 244 242 240 238 235 236 241 241 239 234 227 221 215 213 217 218 216 212 213
260 261 261 262 262 263 263 264 264 264 264 265 265 265 266 266 266 267 267 268 269 269 269 270 271 271 271 271 270 270 269 269 268 267 268 268 267 267 266 265 264 263 262 261 259 257 255 254 253 252 251 250 248 245 242 239 237 235 235 237 238 238 236 233 236 244 246 246 246 248 250 250 244 239 239 243 246 247 245 244 242 240 236 235 238 239 239 236 230 225 218 215 217 219 214 211 213
260 260 261 261 261 261 262 262 262 262 262 263 263 264 264 264 265 265 266 267 267 267 268 268 268 268 268 267 267 267 267 266 265 265 265 265 265 264 264 263 262 261 260 258 256 255 253 252 250 249 248 247 246 243 241 238 236 234 233 233 235 235 233 230 230 238 247 249 245 243 245 246 242 238 239 242 244 246 246 244 242 240 237 236 238 238 238 237 233 228 222 218 218 220 216 212 212
259 259 259 259 259 259 259 259 260 260 261 261 262 262 262 262 263 264 265 265 265 265 265 265 265 265 264 264 264 264 264 264 263 263 263 263 263 262 261 260 259 258 256 254 252 251 250 249 247 245 244 243 242 241 239 237 235 233 230 230 231 232 232 231 230 234 242 248 244 237 239 244 240 235 236 240 243 246 246 244 242 239 237 238 239 238 238 239 236 232 227 221 219 221 219 214 212
256 256 256 256 256 256 256 257 257 258 258 259 259 259 260 260 261 262 263 263 262 262 262 262 262 262 262 262 262 262 262 262 261 261 261 260 260 260 258 256 255 254 252 250 248 247 247 246 244 242 240 239 238 238 236 234 232 229 228 228 229 231 232 232 232 232 235 238 240 235 235 240 236 230 232 237 242 245 246 243 239 236 236 237 238 239 238 239 239 236 232 225 221 221 222 219 216
253 253 253 253 253 253 254 254 255 255 256 256 256 257 257 258 259 260 260 259 259 260 260 260 260 260 260 260 260 260 260 260 260 260 259 259 258 257 256 253 250 250 249 247 245 244 244 243 242 240 237 235 234 233 231 229 228 226 226 226 228 231 232 233 232 230 230 230 234 234 230 234 231 225 229 234 237 242 245 243 238 235 234 235 236 237 238 239 239 238 236 231 224 222 223 223 221
251 250 250 251 251 251 251 252 253 253 253 254 254 255 256 256 257 257 257 257 257 258 258 258 259 259 259 259 259 258 258 258 258 258 258 257 257 255 253 250 247 246 246 245 244 242 241 241 240 238 235 232 231 229 228 226 224 224 225 226 228 230 232 234 232 229 228 225 228 230 228 230 224 216 222 228 230 236 241 242 240 237 236 236 236 235 236 237 238 238 236 234 229 223 222 224 225
249 249 249 249 250 250 250 251 251 251 252 252 252 253 253 254 254 254 254 255 255 256 256 257 257 257 257 257 257 256 256 256 256 256 256 255 254 253 252 249 246 244 244 243 242 241 239 238 237 236 234 230 228 226 225 224 223 223 225 227 229 230 231 232 229 225 226 220 217 221 224 226 219 213 218 223 229 235 239 243 242 241 240 240 239 237 236 235 236 236 235 234 232 226 222 223 226
247 248 248 248 248 249 249 249 249 249 250 250 250 250 250 251 250 250 250 252 253 254 255 256 256 257 257 257 256 256 255 255 255 254 254 253 251 251 250 249 248 245 243 242 242 240 238 237 236 235 233 230 226 224 224 223 223 225 226 228 230 231 232 232 226 222 223 213 207 212 219 223 217 213 215 220 231 237 239 243 243 244 242 241 240 239 237 235 234 233 234 234 232 228 224 223 226
246 246 246 246 247 247 247 247 247 246 246 246 247 246 246 248 248 248 249 250 251 252 253 254 255 256 257 257 257 256 256 255 255 254 253 251 249 249 249 249 249 247 244 243 242 240 238 236 235 234 233 230 226 224 223 223 224 225 228 230 230 231 232 233 227 222 221 209 204 209 215 220 218 214 214 218 228 235 237 240 242 245 245 240 237 237 236 236 235 233 232 232 232 230 226 226 227
244 245 245 245 245 245 244 244 243 243 243 243 244 244 244 246 248 248 249 250 251 251 252 253 254 255 256 257 257 256 257 256 256 256 254 251 248 247 248 249 251 250 247 244 241 239 238 236 234 232 232 232 230 226 224 224 225 226 228 230 231 231 231 232 229 226 224 213 205 210 214 218 219 218 215 217 223 227 230 233 237 242 243 241 237 234 234 235 237 235 232 231 232 231 228 228 229
242 243 243 243 243 241 241 241 240 241 241 242 244 244 243 246 248 249 250 251 252 252 252 253 254 255 256 257 257 257 258 258 258 257 255 253 249 247 248 249 250 250 249 247 244 240 238 236 234 233 231 232 232 231 228 226 226 227 228 230 231 232 230 230 229 229 230 222 209 210 214 217 219 219 215 215 219 221 222 225 229 236 238 238 237 234 233 233 236 236 234 232 233 232 230 229 229
240 240 240 241 240 238 239 240 239 240 242 243 245 246 245 246 250 250 250 252 252 253 253 253 254 255 257 257 258 259 260 261 260 259 258 255 252 250 249 249 249 248 248 248 247 244 239 237 235 234 232 232 232 232 232 230 228 228 229 230 231 232 231 229 228 230 232 228 217 211 211 214 217 218 215 214 219 221 221 222 224 229 234 237 239 239 237 237 237 238 237 233 232 233 232 230 231
239 239 238 239 240 238 239 242 242 242 244 246 247 249 247 247 250 251 251 251 252 252 252 253 255 256 257 258 259 260 262 262 261 260 260 257 254 251 250 249 249 248 247 247 248 248 244 241 238 236 234 233 232 231 232 233 232 230 230 231 231 232 232 230 228 229 231 230 225 219 213 211 214 216 214 214 219 223 222 221 220 221 226 232 236 240 240 240 240 241 241 238 234 233 233 232 232
240 240 239 239 241 240 240 243 245 245 245 247 249 251 249 248 250 252 251 251 252 252 253 255 256 257 257 258 259 261 262 262 262 261 260 258 255 253 251 249 249 249 249 248 247 248 247 245 243 240 238 236 235 233 232 232 233 232 232 232 232 232 233 232 229 229 230 230 229 227 222 216 213 212 213 215 219 224 224 222 219 217 221 228 231 236 240 240 242 244 246 246 242 238 236 233 232
243 243 242 241 243 244 243 244 247 248 247 248 250 252 252 249 250 252 252 253 254 255 256 257 257 257 258 259 260 260 260 261 261 260 259 258 256 254 252 251 250 249 249 248 248 248 248 248 247 245 243 241 239 238 236 234 232 232 233 233 233 233 234 233 232 230 230 230 229 229 228 224 218 214 213 214 217 221 225 224 220 216 219 226 227 230 235 237 243 248 250 251 250 247 244 239 235
244 245 245 245 246 247 247 247 249 250 250 249 250 251 252 251 250 252 254 255 257 257 257 257 257 258 260 261 261 260 260 260 259 259 259 258 257 255 253 252 251 250 249 248 248 248 249 249 249 247 246 244 242 242 241 239 236 233 232 233 233 233 234 234 233 232 231 231 229 229 230 228 225 221 218 217 216 218 223 226 224 218 217 220 221 225 230 232 239 245 249 251 250 251 253 252 246
245 247 247 247 248 249 248 249 250 252 252 251 251 251 252 252 251 251 253 255 256 257 257 257 258 260 260 261 261 260 260 259 259 258 258 257 256 255 254 252 251 250 250 249 248 248 248 248 248 248 248 247 245 243 243 242 241 238 235 233 232 233 233 233 233 233 231 231 230 229 229 230 228 226 223 221 219 220 223 226 227 223 220 219 216 219 226 229 232 237 243 246 246 249 254 257 258
246 247 247 247 248 249 249 250 251 252 253 252 252 253 253 254 253 252 251 253 255 256 256 257 258 259 260 259 259 259 259 259 258 258 257 257 256 255 254 253 252 251 250 250 249 249 248 248 248 248 248 248 247 246 245 244 242 241 238 235 234 233 233 233 233 233 232 231 231 229 228 229 229 228 226 224 222 223 225 228 229 227 224 222 217 216 221 226 231 233 236 241 243 245 249 253 258
247 247 248 248 249 250 250 251 252 253 253 253 253 254 255 255 255 254 253 252 253 256 256 257 258 258 259 259 259 259 259 259 258 258 258 257 256 256 255 254 253 252 251 251 250 249 249 249 248 248 247 247 247 247 246 245 244 243 241 238 236 234 234 234 233 233 233 232 231 230 228 228 228 228 228 226 224 224 224 225 228 229 226 225 224 220 218 222 229 232 234 239 241 241 244 248 252
249 249 249 249 249 251 251 252 253 254 254 254 254 254 255 256 256 255 255 253 253 254 255 256 257 257 258 259 259 259 259 260 259 259 258 257 257 256 255 254 253 252 252 252 251 250 250 249 249 248 248 247 247 247 247 246 245 245 243 241 239 236 235 235 234 234 233 232 232 231 230 229 227 227 228 228 226 225 225 223 224 226 227 228 228 227 223 220 224 229 232 235 238 239 240 244 248
251 251 251 250 250 251 252 253 254 255 255 255 255 255 256 256 256 255 256 255 255 255 255 255 255 256 257 258 259 260 260 260 260 260 259 258 258 257 256 255 254 253 252 252 252 251 251 250 250 249 249 248 248 247 247 246 245 245 245 244 243 240 237 236 236 235 234 233 232 232 231 230 229 227 227 229 228 227 227 226 223 222 225 227 229 231 229 225 224 227 227 228 231 234 237 241 246
252 252 252 252 252 252 253 253 254 255 255 255 255 256 256 256 256 256 256 256 256 257 256 256 255 255 256 257 258 259 259 260 260 260 260 260 259 258 257 256 255 254 253 252 252 251 251 250 250 250 250 250 249 248 248 247 246 245 245 245 245 244 241 239 238 237 236 235 233 233 232 232 230 229 227 228 229 229 227 228 227 224 222 224 227 229 231 230 230 232 231 229 229 231 233 236 241
252 252 252 253 253 253 254 254 255 255 255 255 255 256 257 257 257 257 257 257 257 258 258 257 257 257 257 257 257 258 259 259 260 260 260 260 259 259 258 258 256 255 254 253 252 251 251 250 250 250 250 250 250 250 249 249 247 246 245 245 245 245 244 243 241 239 238 237 235 234 233 232 232 231 229 228 229 230 229 228 229 228 224 222 223 226 228 230 232 234 235 234 232 232 230 231 239
253 253 253 253 254 254 254 255 256 256 256 256 256 256 257 257 257 257 258 258 258 258 258 258 258 258 258 257 257 258 258 259 259 259 259 259 259 259 259 258 258 256 255 254 253 252 250 250 249 249 249 249 249 249 250 250 249 248 247 246 245 245 245 245 244 242 240 239 238 236 234 233 233 232 231 229 229 230 231 229 229 229 228 223 221 223 225 227 230 231 233 233 233 234 232 231 238
253 253 253 253 254 254 255 255 256 256 256 256 256 256 256 257 258 258 258 259 259 258 258 259 259 259 259 258 258 257 258 258 258 258 258 258 259 259 259 259 259 258 256 255 254 252 251 250 250 249 249 249 249 249 249 249 249 249 249 248 247 246 246 245 245 244 243 241 240 238 237 235 234 233 232 231 230 230 232 232 230 230 230 227 223 222 223 224 227 229 230 231 232 235 236 234 237
253 254 254 254 254 254 255 255 255 255 256 256 256 255 256 257 258 258 258 258 258 258 258 259 259 259 259 259 258 258 257 257 257 257 257 258 259 259 260 259 259 258 257 256 254 253 252 251 250 250 250 250 250 249 249 249 249 249 249 249 249 248 248 247 246 245 245 244 242 241 239 238 236 234 233 232 232 231 232 233 232 231 231 230 227 224 224 223 224 226 229 230 231 233 235 235 236
254 254 254 254 254 254 255 255 255 255 255 255 256 255 256 257 258 258 258 258 258 258 258 258 258 259 259 259 259 258 258 258 258 257 257 258 258 259 260 260 259 259 258 257 256 254 253 252 252 251 251 251 251 250 250 250 250 250 249 249 249 249 249 248 247 246 246 245 244 243 242 240 239 237 235 234 233 232 232 233 233 232 232 232 230 228 226 225 223 224 226 229 230 231 231 232 234
255 255 255 255 255 254 255 255 255 255 254 255 256 256 255 256 257 257 257 257 257 257 257 257 257 258 259 259 259 258 258 258 258 258 257 257 258 258 259 259 259 259 258 258 256 255 254 253 252 252 252 252 251 251 251 250 251 250 250 250 249 249 249 248 248 247 247 246 246 245 244 242 241 240 238 236 234 233 233 233 233 233 233 233 232 231 229 228 226 224 224 226 229 229 228 229 231
255 255 255 255 255 255 255 255 254 255 255 254 255 256 255 256 257 257 257 257 258 258 257 256 256 257 257 258 259 259 258 258 258 258 257 257 257 258 258 258 259 259 259 258 257 256 255 254 253 252 251 251 251 251 251 251 251 251 251 250 250 249 249 248 248 247 247 247 246 246 245 244 243 241 240 239 237 235 234 233 233 234 234 233 233 233 232 231 229 226 225 225 226 225 226 227 230
256 256 255 255 256 256 254 254 255 255 255 254 254 255 256 256 256 257 257 257 257 258 258 257 257 257 257 257 258 258 259 259 259 259 258 258 257 257 257 258 259 259 259 259 258 257 255 254 253 252 251 251 251 251 251 251 251 251 251 251 250 250 249 249 248 247 246 246 246 246 245 245 245 243 241 240 239 238 236 235 234 234 234 234 234 233 233 233 232 230 227 227 226 223 224 226 229
256 256 256 256 256 256 254 254 255 255 255 254 254 255 255 255 256 257 257 257 256 257 257 257 257 257 257 257 258 258 258 259 259 259 259 258 258 257 257 258 258 259 259 259 258 257 255 254 253 252 251 250 250 250 250 250 250 250 251 251 251 250 250 249 249 248 248 246 245 245 245 245 245 244 243 241 240 239 239 237 236 235 234 235 235 234 234 233 233 232 229 228 228 226 224 224 226
257 257 257 256 255 256 256 255 255 255 255 255 254 254 255 255 256 256 257 257 256 256 256 256 256 257 257 257 258 257 258 258 258 258 258 258 258 258 258 258 259 259 259 258 258 257 256 254 253 252 251 250 250 250 250 250 250 250 250 251 251 250 250 250 249 249 249 248 247 246 245 244 243 244 244 243 242 240 239 239 238 237 236 235 235 234 234 234 234 234 232 230 229 230 229 226 225
258 257 257 256 255 256 257 257 256 256 256 256 254 253 254 256 256 256 256 257 256 256 256 256 256 256 257 257 258 258 257 257 257 258 258 258 258 258 258 258 258 258 258 258 258 257 256 255 254 253 252 252 251 251 251 251 251 250 250 251 251 251 251 250 250 249 249 249 248 247 246 245 243 242 242 243 243 242 241 240 239 239 238 236 236 235 235 234 234 234 234 232 230 230 232 231 228
259 257 257 257 257 257 258 258 257 256 256 256 255 253 253 255 257 256 256 257 258 257 256 256 256 256 256 256 257 257 258 258 258 258 258 258 258 258 258 258 258 258 257 257 257 256 256 255 255 254 254 253 253 253 252 252 252 251 251 252 252 251 251 251 250 250 249 249 248 248 248 247 245 243 242 241 242 242 242 241 240 239 239 238 237 236 235 235 234 234 234 234 233 231 231 233 234
261 261 259 258 258 259 259 259 258 257 257 256 255 253 252 254 256 257 256 257 258 258 257 256 256 256 256 256 257 257 257 258 258 258 258 258 258 259 259 258 258 258 258 257 257 256 256 256 255 255 255 254 254 254 254 253 253 253 253 253 252 252 252 252 251 251 251 250 249 248 248 247 247 245 244 242 241 241 241 241 241 240 239 238 238 238 237 236 235 235 234 234 234 233 231 232 235
263 263 262 261 260 259 259 259 259 260 259 258 256 253 252 253 254 256 257 258 258 258 258 258 258 257 256 256 257 257 257 258 259 259 259 259 259 259 259 259 259 259 259 258 258 258 257 257 256 256 255 255 254 254 254 254 254 254 254 254 253 253 252 252 252 252 251 251 250 249 248 247 247 246 245 244 243 241 240 240 240 240 240 239 238 238 238 237 237 236 235 234 234 235 234 233 233
263 263 262 262 261 260 259 259 259 260 260 259 258 256 253 253 253 255 257 258 258 258 259 258 258 258 257 256 257 257 258 258 259 259 260 260 260 260 260 260 260 260 260 260 259 259 258 258 257 256 256 255 255 254 254 254 254 254 254 254 254 253 253 252 252 252 251 250 249 248 247 247 246 246 245 245 244 243 241 240 239 239 240 240 239 238 238 238 238 237 237 236 235 235 235 234 234